Erzurum, Turkey

3:00 PM +03 on December 13, 2017 (GMT +0300)
Erzurum

Weather History for LTCE - May, 2013

Change the Weather History Date:

Tuesday, May 14, 2013

  Actual Average Record
Temperature  
Mean Temperature 52 °F -  
Max Temperature 61 °F 66 °F 75 °F (2003)
Min Temperature 42 °F 43 °F 24 °F (2008)
Degree Days  
Heating Degree Days 14    
Growing Degree Days 2 (Base 50)    
Moisture  
Dew Point 37 °F    
Average Humidity 63    
Maximum Humidity 93    
Minimum Humidity 18    
Precipitation  
Precipitation 0.00 in 0.08 in - ()
Sea Level Pressure  
Sea Level Pressure 29.87 in    
Wind  
Wind Speed 6 mph ()    
Max Wind Speed 16 mph    
Max Gust Speed 30 mph    
Visibility 6.6 miles    
Events Rain , Thunderstorm    
Averages and records for this station are not official NWS values.
T = Trace of Precipitation, MM = Missing Value Source: Averaged Metar Reports

Daily Weather History Graph

Daily Weather History Graph

Search for Another Location

Airport or City:

Trip Planner

Search our weather history database for the weather conditions in past years. The results will help you decide how hot, cold, wet, or windy it might be!

Date:

Astronomy

May. 14, 2013 Rise Set
Actual Time 5:01 AM EEST 7:22 PM EEST
Civil Twilight 4:30 AM EEST 7:53 PM EEST
Nautical Twilight 3:53 AM EEST 8:31 PM EEST
Astronomical Twilight 3:11 AM EEST 9:12 PM EEST
Moon 8:21 AM EEST (5/14) 10:56 PM EEST (5/14)
Length of Visible Light 15h 22m
Length of Day
14h 21m
Waxing Crescent, 16% of the Moon is Illuminated
May 14
Waxing Crescent
May 18
First Quarter
May 25
Full
May 31
Last Quarter
Jun 8
New

Hourly Weather History & Observations

Time (EEST) Temp. Windchill Dew Point Humidity Pressure Visibility Wind Dir Wind Speed Gust Speed Precip Events Conditions
12:20 AM 42.8 °F 41.1 °F 39.2 °F 87% 29.89 in 6.2 mi South 3.5 mph - N/A   Scattered Clouds
12:50 AM 46.4 °F 45.2 °F 41.0 °F 81% 29.86 in 6.2 mi SSW 3.5 mph - N/A   Scattered Clouds
1:20 AM 44.6 °F - 41.0 °F 87% 29.86 in 6.2 mi Calm Calm - N/A   Scattered Clouds
1:50 AM 44.6 °F - 41.0 °F 87% 29.86 in 6.2 mi Calm Calm - N/A   Scattered Clouds
2:20 AM 44.6 °F - 41.0 °F 87% 29.86 in 6.2 mi Calm Calm - N/A   Scattered Clouds
3:00 AM 43 °F - 41 °F 91%  in 12 mi ESE 2.3 mph - -   Partly Cloudy
3:20 AM 44.6 °F - 41.0 °F 87% 29.86 in 6.2 mi SSE 2.3 mph - N/A   Scattered Clouds
3:50 AM 44.6 °F - 41.0 °F 87% 29.83 in 6.2 mi Variable 2.3 mph - N/A   Scattered Clouds
4:20 AM 44.6 °F 43.1 °F 41.0 °F 87% 29.83 in 6.2 mi East 3.5 mph - N/A   Scattered Clouds
4:50 AM 44.6 °F - 42.8 °F 93% 29.86 in 6.2 mi Variable 2.3 mph - N/A   Scattered Clouds
5:20 AM 44.6 °F - 41.0 °F 87% 29.86 in 6.2 mi Variable 2.3 mph - N/A   Scattered Clouds
5:50 AM 44.6 °F - 42.8 °F 93% 29.86 in 6.2 mi North 2.3 mph - N/A   Scattered Clouds
6:20 AM 46.4 °F - 42.8 °F 87% 29.86 in 6.2 mi Calm Calm - N/A   Mostly Cloudy
6:38 AM 46.4 °F - 42.8 °F 87% 29.86 in 6.2 mi Calm Calm - N/A Rain Light Rain Showers
6:50 AM 46.4 °F - 42.8 °F 87% 29.86 in 6.2 mi Variable 1.2 mph - N/A Rain Light Rain Showers
7:08 AM 48.2 °F - 42.8 °F 82% 29.86 in 6.2 mi NNE 4.6 mph - N/A   Mostly Cloudy
7:20 AM 48.2 °F - 42.8 °F 82% 29.86 in 6.2 mi NNE 3.5 mph - N/A   Mostly Cloudy
7:50 AM 51.8 °F - 42.8 °F 71% 29.86 in 6.2 mi West 3.5 mph - N/A   Mostly Cloudy
8:20 AM 50.0 °F - 41.0 °F 71% 29.86 in 6.2 mi East 4.6 mph - N/A   Mostly Cloudy
8:50 AM 51.8 °F - 39.2 °F 62% 29.86 in 6.2 mi SW 11.5 mph - N/A   Mostly Cloudy
8:59 AM 51.8 °F - 41.0 °F 67% 29.86 in 6.2 mi SW 11.5 mph - N/A Rain Light Rain Showers
9:00 AM 52 °F - 40 °F 55%  in 12 mi SW 11.5 mph - -   Partly Cloudy
9:20 AM 50.0 °F - 37.4 °F 62% 29.86 in 6.2 mi SSW 11.5 mph - N/A   Mostly Cloudy
9:50 AM 51.8 °F - 39.2 °F 62% 29.89 in 6.2 mi SSW 10.4 mph - N/A   Mostly Cloudy
10:20 AM 51.8 °F - 37.4 °F 58% 29.89 in 6.2 mi SSW 13.8 mph - N/A   Mostly Cloudy
10:50 AM 53.6 °F - 39.2 °F 58% 29.89 in 6.2 mi SSW 12.7 mph - N/A   Mostly Cloudy
11:20 AM 57.2 °F - 37.4 °F 48% 29.89 in 6.2 mi SW 11.5 mph - N/A   Mostly Cloudy
11:50 AM 55.4 °F - 35.6 °F 47% 29.86 in 6.2 mi SW 8.1 mph - N/A   Mostly Cloudy
12:20 PM 55.4 °F - 33.8 °F 44% 29.86 in 6.2 mi SW 11.5 mph - N/A   Mostly Cloudy
12:50 PM 59.0 °F - 32.0 °F 36% 29.86 in 6.2 mi South 13.8 mph - N/A   Mostly Cloudy
1:20 PM 60.8 °F - 32.0 °F 34% 29.83 in 6.2 mi WSW 11.5 mph - N/A   Mostly Cloudy
1:50 PM 60.8 °F - 33.8 °F 36% 29.83 in 6.2 mi SSW 10.4 mph - N/A   Scattered Clouds
2:20 PM 60.8 °F - 28.4 °F 29% 29.83 in 6.2 mi SW 12.7 mph - N/A   Scattered Clouds
2:50 PM 60.8 °F - 30.2 °F 31% 29.83 in 6.2 mi SW 10.4 mph - N/A   Scattered Clouds
3:00 PM 61 °F - 29 °F 18%  in 12 mi SW 10.4 mph - -   Partly Cloudy
3:20 PM 60.8 °F - 33.8 °F 36% 29.83 in 6.2 mi SW 11.5 mph - N/A   Scattered Clouds
3:50 PM 59.0 °F - 30.2 °F 34% 29.83 in 6.2 mi South 11.5 mph - N/A   Scattered Clouds
4:20 PM 59.0 °F - 33.8 °F 39% 29.83 in 6.2 mi SSW 11.5 mph - N/A   Scattered Clouds
4:50 PM 59.0 °F - 37.4 °F 45% 29.83 in 6.2 mi SSW 10.4 mph 21.9 mph N/A   Scattered Clouds
5:20 PM 57.2 °F - 37.4 °F 48% 29.86 in 6.2 mi SSW 12.7 mph - N/A   Mostly Cloudy
5:50 PM 51.8 °F - 37.4 °F 58% 29.86 in 6.2 mi SW 16.1 mph 29.9 mph N/A   Mostly Cloudy
6:20 PM 50.0 °F - 37.4 °F 62% 29.86 in 6.2 mi SSW 16.1 mph - N/A   Mostly Cloudy
6:50 PM 50.0 °F - 37.4 °F 62% 29.86 in 6.2 mi SSW 10.4 mph - N/A   Mostly Cloudy
7:20 PM 50.0 °F - 37.4 °F 62% 29.89 in 6.2 mi South 8.1 mph - N/A   Mostly Cloudy
7:43 PM 50.0 °F - 37.4 °F 62% 29.89 in 6.2 mi SW 5.8 mph - N/A Thunderstorm Mostly Cloudy
7:50 PM 50.0 °F - 35.6 °F 58% 29.89 in 6.2 mi SSW 6.9 mph - N/A Thunderstorm Mostly Cloudy
8:20 PM 50.0 °F - 35.6 °F 58% 29.89 in 6.2 mi West 10.4 mph - N/A   Mostly Cloudy
8:50 PM 50.0 °F - 32.0 °F 50% 29.89 in 6.2 mi WSW 10.4 mph - N/A   Mostly Cloudy
9:00 PM 49 °F - 33 °F 41%  in 12 mi WSW 10.4 mph - -   Partly Cloudy
9:20 PM 48.2 °F - 33.8 °F 58% 29.92 in 6.2 mi SW 6.9 mph - N/A   Mostly Cloudy
9:50 PM 48.2 °F - 33.8 °F 58% 29.92 in 6.2 mi WSW 11.5 mph - N/A   Mostly Cloudy
10:20 PM 46.4 °F 42.9 °F 33.8 °F 62% 29.92 in 6.2 mi SW 6.9 mph - N/A   Mostly Cloudy
10:50 PM 46.4 °F 42.4 °F 33.8 °F 62% 29.92 in 6.2 mi WSW 8.1 mph - N/A   Mostly Cloudy
11:20 PM 46.4 °F 42.9 °F 33.8 °F 62% 29.92 in 6.2 mi WSW 6.9 mph - N/A   Mostly Cloudy
11:50 PM 44.6 °F 42.2 °F 33.8 °F 66% 29.92 in 6.2 mi SSW 4.6 mph - N/A   Mostly Cloudy